TimeEDT,TemperatureF,Dew PointF,Humidity,Sea Level PressureIn,VisibilityMPH,Wind Direction,Wind SpeedMPH,Gust SpeedMPH,PrecipitationIn,Events,Conditions,WindDirDegrees,DateUTC
12:15 AM,77.4,74.3,90,29.80,10.0,South,10.4,-,N/A,,Clear,190,2013-06-28 04:15:00
12:35 AM,77.0,74.1,91,29.79,10.0,SSW,8.1,-,N/A,,Clear,200,2013-06-28 04:35:00
12:55 AM,77.0,74.3,91,29.80,10.0,South,5.8,-,N/A,,Clear,180,2013-06-28 04:55:00
1:15 AM,76.6,74.3,92,29.80,10.0,South,5.8,-,N/A,,Scattered Clouds,190,2013-06-28 05:15:00
1:35 AM,76.6,73.9,91,29.81,10.0,SSW,5.8,-,N/A,,Clear,210,2013-06-28 05:35:00
1:55 AM,77.0,73.6,89,29.80,10.0,SSW,8.1,-,N/A,,Clear,210,2013-06-28 05:55:00
2:15 AM,77.0,72.7,86,29.80,10.0,SW,3.5,-,N/A,,Clear,230,2013-06-28 06:15:00
2:35 AM,76.3,72.7,89,29.79,10.0,SSW,4.6,-,N/A,,Scattered Clouds,210,2013-06-28 06:35:00
2:55 AM,76.1,72.7,89,29.79,7.0,SW,4.6,-,0.01,Rain,Rain,220,2013-06-28 06:55:00
3:15 AM,76.1,72.9,90,29.78,7.0,SW,4.6,-,0.01,Rain,Light Rain,220,2013-06-28 07:15:00
3:35 AM,75.4,73.2,93,29.76,7.0,South,6.9,-,0.01,Rain,Rain,180,2013-06-28 07:35:00
3:55 AM,75.6,73.6,94,29.75,7.0,South,4.6,-,0.01,,Scattered Clouds,180,2013-06-28 07:55:00
4:15 AM,75.7,73.8,94,29.74,7.0,SSW,6.9,-,N/A,,Scattered Clouds,210,2013-06-28 08:15:00
4:35 AM,76.1,73.9,93,29.73,7.0,SW,6.9,-,N/A,,Clear,220,2013-06-28 08:35:00
4:55 AM,76.1,73.6,92,29.72,10.0,SW,8.1,-,N/A,,Clear,230,2013-06-28 08:55:00
5:15 AM,75.9,73.0,91,29.72,10.0,SW,6.9,-,N/A,,Clear,230,2013-06-28 09:15:00
5:35 AM,75.4,72.5,91,29.72,10.0,SW,8.1,-,N/A,,Clear,230,2013-06-28 09:35:00
5:55 AM,75.2,72.5,91,29.73,10.0,SW,6.9,-,N/A,,Clear,230,2013-06-28 09:55:00
6:15 AM,74.8,72.3,92,29.73,10.0,SW,5.8,-,N/A,,Clear,220,2013-06-28 10:15:00
6:35 AM,74.8,72.1,91,29.74,10.0,SSW,6.9,-,N/A,,Clear,210,2013-06-28 10:35:00
6:55 AM,75.0,72.3,91,29.75,10.0,SSW,4.6,-,N/A,,Clear,210,2013-06-28 10:55:00
7:15 AM,75.4,72.1,90,29.76,10.0,SW,6.9,-,N/A,,Clear,220,2013-06-28 11:15:00
7:35 AM,76.1,72.5,89,29.76,10.0,SSW,6.9,-,N/A,,Clear,210,2013-06-28 11:35:00
7:55 AM,76.3,72.5,88,29.75,10.0,SW,6.9,-,N/A,,Clear,220,2013-06-28 11:55:00
8:55 AM,78.4,73.0,83,29.75,10.0,SSW,10.4,-,N/A,,Overcast,210,2013-06-28 12:55:00
9:15 AM,79.0,73.4,83,29.75,10.0,SSW,9.2,-,N/A,,Overcast,210,2013-06-28 13:15:00
9:35 AM,78.8,73.4,83,29.75,10.0,SW,8.1,-,N/A,,Overcast,230,2013-06-28 13:35:00
9:55 AM,79.7,73.6,81,29.75,10.0,SW,10.4,-,N/A,,Overcast,220,2013-06-28 13:55:00
10:15 AM,79.7,73.8,82,29.75,10.0,SW,8.1,-,N/A,,Overcast,220,2013-06-28 14:15:00
10:35 AM,80.6,73.9,80,29.74,10.0,SSW,5.8,-,N/A,,Overcast,210,2013-06-28 14:35:00
10:55 AM,81.1,74.1,79,29.75,10.0,SSW,11.5,-,N/A,,Overcast,200,2013-06-28 14:55:00
11:15 AM,81.5,74.5,79,29.75,10.0,SSW,8.1,-,N/A,,Overcast,210,2013-06-28 15:15:00
11:35 AM,81.9,73.9,77,29.75,10.0,SW,4.6,-,N/A,,Overcast,220,2013-06-28 15:35:00
11:55 AM,82.9,74.3,75,29.75,10.0,SW,6.9,-,N/A,,Mostly Cloudy,220,2013-06-28 15:55:00
12:15 PM,84.0,74.5,73,29.75,10.0,SSW,5.8,-,N/A,,Mostly Cloudy,210,2013-06-28 16:15:00
12:35 PM,84.0,74.5,73,29.74,10.0,SW,6.9,-,N/A,,Overcast,220,2013-06-28 16:35:00
12:55 PM,84.7,74.5,71,29.73,10.0,SW,5.8,-,N/A,,Overcast,230,2013-06-28 16:55:00
1:15 PM,85.1,74.7,71,29.72,10.0,WSW,5.8,-,N/A,,Overcast,240,2013-06-28 17:15:00
1:35 PM,86.4,75.0,69,29.72,10.0,WSW,6.9,-,N/A,,Mostly Cloudy,240,2013-06-28 17:35:00
1:55 PM,87.3,75.0,67,29.71,10.0,SW,6.9,-,N/A,,Mostly Cloudy,230,2013-06-28 17:55:00
2:15 PM,86.9,74.8,67,29.70,10.0,SSW,11.5,-,N/A,,Scattered Clouds,200,2013-06-28 18:15:00
2:35 PM,88.3,75.2,65,29.69,10.0,South,10.4,-,N/A,,Mostly Cloudy,190,2013-06-28 18:35:00
2:55 PM,88.2,73.8,62,29.69,10.0,SSW,9.2,-,N/A,,Scattered Clouds,200,2013-06-28 18:55:00
3:15 PM,89.6,73.8,59,29.69,10.0,SW,6.9,-,N/A,,Scattered Clouds,220,2013-06-28 19:15:00
3:35 PM,90.1,73.4,58,29.69,10.0,SW,8.1,-,N/A,,Scattered Clouds,230,2013-06-28 19:35:00
3:55 PM,90.3,72.9,56,29.69,10.0,SSW,6.9,-,N/A,,Scattered Clouds,210,2013-06-28 19:55:00
4:15 PM,90.1,73.0,57,29.68,10.0,SSW,9.2,-,N/A,,Scattered Clouds,210,2013-06-28 20:15:00
4:35 PM,90.0,73.0,57,29.67,10.0,SW,6.9,-,N/A,,Scattered Clouds,220,2013-06-28 20:35:00
4:55 PM,90.5,72.7,56,29.67,10.0,SSW,10.4,-,N/A,,Scattered Clouds,200,2013-06-28 20:55:00
5:15 PM,90.5,73.0,56,29.66,10.0,SSW,6.9,-,N/A,,Scattered Clouds,210,2013-06-28 21:15:00
5:35 PM,90.7,72.1,54,29.65,10.0,SW,6.9,-,N/A,,Clear,230,2013-06-28 21:35:00
5:55 PM,90.7,72.5,55,29.64,10.0,SW,8.1,-,N/A,,Clear,220,2013-06-28 21:55:00
6:15 PM,90.0,75.2,62,29.64,10.0,South,8.1,-,N/A,,Clear,170,2013-06-28 22:15:00
6:35 PM,87.6,78.1,73,29.64,10.0,SSE,5.8,-,N/A,,Scattered Clouds,160,2013-06-28 22:35:00
6:55 PM,87.3,78.3,74,29.65,10.0,SSE,6.9,-,N/A,,Scattered Clouds,160,2013-06-28 22:55:00
7:15 PM,86.4,78.1,76,29.65,10.0,SSE,5.8,-,N/A,,Clear,160,2013-06-28 23:15:00
7:35 PM,86.0,78.3,78,29.66,10.0,SSE,5.8,-,N/A,,Scattered Clouds,160,2013-06-28 23:35:00
7:55 PM,85.5,78.6,80,29.66,10.0,South,5.8,-,N/A,,Scattered Clouds,170,2013-06-28 23:55:00
8:15 PM,84.2,78.8,84,29.66,10.0,South,4.6,-,N/A,,Clear,170,2013-06-29 00:15:00
8:35 PM,83.7,78.8,85,29.67,10.0,South,5.8,-,N/A,,Clear,170,2013-06-29 00:35:00
8:55 PM,83.3,78.4,85,29.67,10.0,SSE,4.6,-,N/A,,Clear,160,2013-06-29 00:55:00
9:15 PM,82.8,78.3,86,29.67,10.0,South,4.6,-,N/A,,Clear,180,2013-06-29 01:15:00
9:35 PM,82.8,77.9,85,29.67,10.0,South,6.9,-,N/A,,Clear,180,2013-06-29 01:35:00
9:55 PM,81.9,77.9,88,29.67,7.0,South,4.6,-,N/A,,Clear,170,2013-06-29 01:55:00
10:15 PM,81.7,77.0,86,29.67,10.0,South,4.6,-,N/A,,Clear,180,2013-06-29 02:15:00
10:35 PM,81.0,77.0,88,29.67,10.0,SSE,3.5,-,N/A,,Clear,160,2013-06-29 02:35:00
10:55 PM,80.6,77.0,89,29.67,7.0,Calm,Calm,-,N/A,,Clear,0,2013-06-29 02:55:00
11:15 PM,80.2,77.0,90,29.67,7.0,Calm,Calm,-,N/A,,Clear,0,2013-06-29 03:15:00
11:35 PM,79.7,77.0,91,29.67,7.0,SSE,3.5,-,N/A,,Clear,160,2013-06-29 03:35:00
11:55 PM,79.7,76.8,91,29.67,7.0,SSE,3.5,-,N/A,,Clear,150,2013-06-29 03:55:00